Regional Weather Roundup
Issued by NWS

Home | Current Version | Previous Version | Text Only | Print | Product List | Glossary On
Versions: 1 2 3 4 5 6 7 8 9 10 11 12 13 14 15 16 17 18 19 20 21 22 23 24 25 26 27 28 29 30 31 32 33 34 35 36 37 38 39 40 41 42 43 44 45 46 47 48 49 50
000
ASUS43 KDTX 291010
RWRMI
MICHIGAN HOURLY REGIONAL WEATHER ROUNDUP
NATIONAL WEATHER SERVICE DETROIT/PONTIAC MI
500 AM EST SAT NOV 29 2014

NOTE: "FAIR" INDICATES FEW OR NO CLOUDS BELOW 12,000 FEET WITH NO
SIGNIFICANT WEATHER AND/OR OBSTRUCTION TO VISIBILITY.

MIZ047>049-052>055-059>063-066>070-074>076-081>083-291100-
SOUTHEAST LOWER MICHIGAN

CITY           SKY/WX    TMP DP  RH WIND       PRES   REMARKS
ADRIAN         CLOUDY    30  24  78 S7        29.97F WCI  23
ALMA           MOCLDY    26  24  91 SE3       29.91F
ANN ARBOR      MIX PCPN  30  23  75 SE6       29.98F WCI  24
BAD AXE        CLOUDY    29  26  90 S13       29.97F WCI  19
CARO           CLOUDY    28  25  86 SE8       29.95F WCI  20
DETROIT CITY   CLOUDY    33  24  69 S6        30.01F WCI  28
DETROIT        SLEET SH  32  23  69 SE7       30.01F WCI  26
FLINT          CLOUDY    32  24  72 S10       29.95F WCI  24
GROSSE ILE     FLURRIES  34  25  69 S10       30.00S WCI  26
HILLSDALE      CLOUDY    30  23  77 S7        29.92F WCI  23
HOWELL         CLOUDY    29  25  85 SE10G16   29.93F WCI  19

CITY           SKY/WX    TMP DP  RH WIND       PRES   REMARKS
JACKSON        CLOUDY    29  23  78 SE12      29.92F WCI  19
LAMBERTVILLE   CLOUDY    32  23  69 SE6       29.98F WCI  26
LANSING        MIX PCPN  29  24  82 SE12      29.92F WCI  19
LAPEER         CLOUDY    30  24  80 S7        29.97F WCI  23
MASON          MIX PCPN  30  26  86 SE10      29.92F WCI  21
MONROE         MIX PCPN  32  25  74 CALM      29.98F
MT. CLEMENS    CLOUDY    32  27  81 S10       29.98F WCI  24
PONTIAC        CLOUDY    30  23  75 S8        29.96F WCI  22
PORT HOPE        N/A     29  23  78 VRB6      29.96F WCI  23
PORT HURON     CLOUDY    30  27  86 S7        30.02F WCI  23
TRI CITIES     CLOUDY    31  24  75 S8        29.94F WCI  23
TROY           CLOUDY    33  26  73 S6        30.00F WCI  28
SAGINAW HB     CLOUDY    32  27  80 S8        29.94F WCI  25
$$
MIZ043>046-050>051-056>058-064>065-071>073-077>080-291100-
SOUTHWEST LOWER MICHIGAN

CITY           SKY/WX    TMP DP  RH WIND       PRES   REMARKS
BATTLE CREEK   CLOUDY    33  22  63 S9        29.90F WCI  25
BENTON HARBOR  PTCLDY    30  24  78 SE12      29.84F WCI  20
BIG RAPIDS     MOCLDY    28  26  93 SE7       29.86S WCI  21
COLDWATER      MOCLDY    32  24  72 MISG      29.91F
FREMONT        CLOUDY    30  28  92 SE7       29.84F WCI  23
HOLLAND        CLOUDY    33  25  72 SE12      29.85F WCI  24
GRAND RAPIDS   CLOUDY    31  25  78 S13       29.87F WCI  21
IONIA          MIX PCPN  31  27  86 S9        29.89S WCI  23
KALAMAZOO      CLOUDY    32  23  69 S5        29.89F WCI  27
LUDINGTON      CLOUDY    29  26  88 SE9       29.83S WCI  21
MARSHALL       CLOUDY    30  22  72 SE7       29.90F WCI  24
MOUNT PLEASANT CLOUDY    28  24  86 SE8       29.88F WCI  20
MUSKEGON       CLOUDY    32  24  72 SE10      29.84F WCI  24
SOUTH HAVEN    MOCLDY    32  26  76 S6        29.85F WCI  27
$$
MIZ016>042-291100-
NORTHERN LOWER MICHIGAN

CITY           SKY/WX    TMP DP  RH WIND       PRES   REMARKS
ALPENA         CLOUDY    26  23  88 S10       29.93F WCI  16
BEAVER ISLAND  CLOUDY    31  30  96 SE7       29.82F FOG     WCI  24
BELLAIRE       CLOUDY    28  24  83 SE3       29.87F
CADILLAC       CLOUDY    25  22  91 SE8       29.84S WCI  16
CHARLEVOIX     CLOUDY    26  24  91 SE12      29.87F WCI  16
FRANKFORT      CLOUDY    28  26  89 SE13      29.82F WCI  18
GAYLORD        CLOUDY    23  20  88 S9        29.85F WCI  13
GRAYLING       CLOUDY    26  24  92 SE8       29.87F WCI  17
HARBOR SPRINGS CLOUDY    26  23  87 E7        29.87F WCI  19
HOUGHTON LAKE  CLOUDY    24  21  88 SE7       29.88F WCI  16
MANISTEE       CLOUDY    28  25  86 SE9       29.83F WCI  20
OSCODA         CLOUDY    29  25  84 S9        29.94F WCI  21
PELLSTON       CLOUDY    26  22  84 SE8       29.88F WCI  18
ROGERS CITY    CLOUDY    26  24  93 S15       29.92S WCI  13
TRAVERSE CITY  CLOUDY    28  22  78 VRB7      29.84F WCI  21
$$
MIZ007>008-015-291100-
EASTERN UPPER MICHIGAN

CITY           SKY/WX    TMP DP  RH WIND       PRES   REMARKS
KINROSS        CLOUDY    27  25  93 SE10      29.87F WCI  17
MACKINAC ISLAN CLOUDY    27  24  86 S12G17    29.86F FOG     WCI  17
NEWBERRY       CLOUDY    24  24 100 E10       29.80F FOG     WCI  13
S. S. MARIE    CLOUDY    27  23  85 SE7       29.85F WCI  19
MUNISING         N/A     32  28  85 S6        29.76F WCI  26
$$
MIZ004>006-011>014-085-291100-
CENTRAL UPPER MICHIGAN

CITY           SKY/WX    TMP DP  RH WIND       PRES   REMARKS
MANISTIQUE     CLOUDY    32  32 100 S12G18    29.78F FOG     WCI  23
ESCANABA       CLOUDY    27  21  80 CALM      29.75F
MENOMINEE      CLEAR     21  21 100 CALM      29.75F
SAWYER-GWINN   CLOUDY    23  21  92 S6        29.71F FOG     WCI  16
$$
MIZ001>003-009>011-084-291100-
WESTERN UPPER MICHIGAN

CITY           SKY/WX    TMP DP  RH WIND       PRES   REMARKS
IRON MOUNTAIN  CLOUDY    20  17  88 CALM      29.71F
HOUGHTON       CLOUDY    21  14  74 S13       29.65F WCI   9
COPPER HARBOR    N/A     27  20  75 SW3       29.69F
IRONWOOD       PTCLDY    19  16  86 S9        29.59F WCI   9
$$

ABBREVIATIONS USED IN REMARKS
   TC - TEMPERATURE IN CELSIUS
  WCI - WIND CHILL INDEX
   HX - HEAT INDEX
  VSB - VISIBILITY




USA.gov is the U.S. government's official web portal to all federal, state and local government web resources and services.